Location: ??
(35.4627°N, 139.3695°E)
Time: 15:22:36
(UTC+00:00)

USA 276 - Pass Details

Date: 25 November 2020
Orbit: 380 x 394 km, 50.0° (Epoch: 07 January)

Event Time Altitude Azimuth Distance (km) Brightness Sun altitude
Exits shadow 19:42:20 27° 176° (S) 789 3.7 -21.3°
Drops below altitude 10° 19:44:10 10° 154° (SSE) 1,426 5.4 -21.0°
Sets 19:46:17 0° 146° (SE) 2,276 6.7 -20.5°
